Temperature
21 21 21 21 18 18 19 20 21 21 21 21 21 20 19 18 18 17 17 17 18 18 18 18 18 18 17 17 18 18 18 18 18 18 18 18 18 18 18 17 17 18 17 17 17 17 17 17 17
21 21 21 21 18 18 19 20 20 21 22 22 21 20 19 18 18 18 17 18 18 18 18 18 18 18 18 17 17 17 18 18 18 18 18 18 18 18 18 17 17 17 17 17 17 17 17 17 17
21 21 21 18 19 19 20 20 21 22 22 22 21 20 19 18 18 18 18 18 18 18 18 18 18 18 18 17 17 17 17 17 17 17 17 17 18 18 17 17 17 17 17 17 17 17 17 17 17
22 21 21 18 19 20 20 20 21 22 22 21 20 19 19 19 19 18 18 18 18 18 18 18 18 17 17 17 17 17 17 17 17 17 17 17 17 17 17 17 17 17 17 17 17 17 17 17 17
22 21 19 19 20 21 21 22 23 21 21 21 20 18 18 19 19 18 18 18 18 18 18 18 18 17 17 17 17 17 17 17 17 17 17 17 17 17 17 17 17 17 17 17 17 17 17 17 17
22 19 18 19 20 21 22 23 22 21 21 20 19 18 18 19 19 18 18 18 18 18 18 18 18 17 17 17 17 17 17 17 17 17 17 17 17 17 17 17 17 17 17 17 17 17 17 16 16
21 18 19 20 20 21 22 23 22 21 21 21 20 18 18 19 19 19 18 18 18 18 18 18 18 17 17 17 17 17 17 17 17 17 17 17 17 17 17 17 17 17 16 16 16 16 16 16 16
22 18 20 19 20 21 23 23 23 22 21 21 21 19 18 19 19 19 18 18 18 18 18 18 18 18 17 17 17 17 17 17 17 17 17 17 17 17 17 17 17 16 16 16 16 16 16 16 16
23 18 19 20 20 21 23 23 23 23 22 21 21 21 20 19 19 19 18 18 18 18 18 18 18 18 17 17 17 17 17 17 17 17 17 16 16 16 16 16 16 16 16 16 16 16 16 16 16
21 18 20 21 21 21 22 23 23 22 21 21 21 20 20 19 19 19 19 18 18 18 18 18 18 18 18 17 17 17 17 17 17 17 16 16 16 16 16 16 16 16 16 16 16 16 16 16 16
21 20 21 22 23 23 23 23 23 21 20 20 20 20 20 19 19 19 19 19 19 18 18 18 18 18 18 17 17 17 17 17 16 16 16 16 16 16 16 16 16 16 16 16 16 16 16 16 15
21 21 22 23 23 23 23 23 22 22 22 22 22 21 20 20 20 19 19 19 19 18 18 18 18 18 18 17 17 17 17 16 16 16 16 16 16 16 16 16 16 16 16 16 15 15 15 15 15
21 21 23 23 23 24 23 23 22 22 22 22 21 21 20 20 20 20 19 19 19 19 18 18 18 18 18 17 17 17 17 17 16 16 16 16 16 16 16 16 16 16 16 16 15 15 15 15 15
22 22 23 23 23 23 23 22 22 22 22 22 21 21 21 20 20 20 19 19 19 19 19 18 18 18 18 17 17 17 17 17 16 16 16 16 16 16 16 16 15 15 15 15 15 15 15 15 15
23 21 22 22 23 23 22 21 21 22 22 21 21 21 21 20 20 20 20 19 19 19 19 18 18 18 18 17 17 17 17 16 16 16 16 16 16 16 16 15 15 15 15 15 15 15 15 15 15
22 21 20 21 22 22 21 20 21 22 21 21 21 21 21 20 20 20 20 20 19 19 19 18 18 18 18 17 17 17 17 16 16 16 16 16 16 15 15 15 15 15 15 15 15 15 15 15 14
20 19 20 21 22 22 21 20 21 22 21 20 21 21 21 20 20 20 20 20 19 19 19 18 18 18 17 17 17 17 17 16 16 16 16 16 16 15 15 15 15 15 15 15 15 14 14 14 14
19 19 20 20 21 21 20 20 20 22 21 20 20 20 20 20 20 20 20 20 19 19 19 18 18 18 17 17 17 17 16 16 16 16 16 16 15 15 15 15 15 15 15 15 14 14 14 14 14
20 20 20 20 21 21 20 20 20 21 20 20 20 20 20 20 20 20 20 19 19 19 19 18 18 18 17 17 17 17 16 16 16 16 16 15 15 15 15 15 15 14 14 14 14 14 14 14 14
21 20 20 21 21 21 19 19 20 20 20 20 20 20 20 20 20 20 19 19 19 19 18 18 18 18 18 17 17 17 16 16 16 15 15 15 15 15 15 15 14 14 14 14 14 14 14 13 13
21 20 21 21 21 21 20 19 19 19 20 20 20 20 20 20 20 20 19 19 19 19 19 18 18 18 17 17 17 17 16 16 16 15 15 15 15 15 14 14 14 14 14 14 14 14 14 13 13
20 22 22 21 20 18 20 18 18 18 18 19 19 20 20 20 20 20 20 19 19 19 19 18 18 18 17 17 17 17 17 16 16 15 15 15 15 14 14 14 14 14 14 14 13 13 13 13 13
21 22 22 21 20 18 18 18 18 18 18 18 18 19 20 20 20 20 20 20 19 19 19 18 18 18 17 17 17 17 17 16 16 15 15 15 14 14 14 14 14 14 14 13 13 13 13 13 13
22 21 20 18 17 18 18 18 18 17 18 19 18 19 20 20 20 20 20 20 19 19 18 18 18 18 17 17 17 17 17 16 16 15 15 15 14 14 14 14 14 14 13 13 13 13 13 12 12
21 18 17 17 16 17 18 18 18 19 19 19 19 20 20 20 20 20 19 19 19 19 18 18 18 17 17 17 17 17 16 16 16 15 15 15 14 14 14 14 14 13 13 13 13 13 13 12 12
20 18 17 17 17 17 18 18 18 19 20 20 20 20 20 20 20 20 20 19 19 19 18 18 18 18 17 17 17 17 16 16 16 15 15 15 14 14 14 14 13 13 13 13 13 13 12 12 12
20 18 18 17 17 17 17 18 19 19 19 19 19 20 20 20 20 20 19 19 19 18 18 18 18 18 17 17 17 16 16 16 16 15 15 15 14 14 14 14 13 13 13 13 13 12 12 12 12
20 19 16 17 17 17 17 18 17 19 18 18 18 19 19 20 20 20 19 19 19 18 18 18 17 17 17 17 16 16 16 16 15 15 15 14 14 14 14 13 13 13 13 12 12 12 12 12 12
20 19 17 15 15 16 16 17 19 18 18 18 18 19 19 20 20 19 19 19 19 18 18 17 17 17 17 16 16 16 16 15 15 15 15 14 14 14 13 13 13 13 13 12 12 12 12 12 12
19 19 17 16 16 15 15 16 19 18 18 18 19 19 19 20 20 19 19 19 18 18 18 17 17 17 17 16 16 16 15 15 15 15 14 14 14 14 13 13 13 13 12 12 12 12 12 11 11
Wind_Speed
2 1 3 3 5 6 4 1 2 3 4 5 8 10 9 6 4 5 3 7 8 5 5 7 9 10 11 11 12 12 12 12 13 13 13 13 13 13 13 13 14 13 13 13 13 12 12 12 12
0 1 3 4 5 4 2 1 4 4 6 7 8 8 7 6 4 6 4 7 8 7 6 8 10 10 11 11 12 12 12 12 13 13 13 13 13 13 13 13 13 13 13 13 13 13 13 13 13
1 1 3 4 4 4 4 3 5 4 6 5 5 6 5 5 5 5 6 10 8 7 7 9 10 10 10 11 12 12 12 13 13 13 13 13 13 13 13 13 13 13 13 13 13 13 13 13 13
2 4 5 5 4 3 6 6 5 5 5 6 6 6 4 3 4 6 10 11 9 6 7 9 10 10 10 10 11 12 12 12 12 13 13 13 13 13 12 12 12 12 12 12 12 13 13 13 13
3 4 5 4 2 2 4 5 6 6 4 5 7 6 3 2 8 11 11 10 10 6 7 9 10 10 10 10 10 11 11 12 12 12 12 12 12 12 12 11 11 11 11 12 12 13 13 13 13
4 4 4 3 2 1 2 5 7 8 7 6 7 6 3 3 8 9 10 9 9 8 7 8 10 10 10 10 10 10 11 11 11 11 11 11 11 11 11 10 10 11 11 11 11 12 12 13 13
4 4 3 3 3 2 4 5 7 8 7 6 7 6 4 3 6 8 9 8 7 7 6 6 7 8 9 9 9 9 10 10 10 10 10 10 10 10 10 10 10 10 10 10 10 11 12 12 12
5 4 3 2 4 3 3 4 6 8 6 6 6 8 6 6 6 8 8 8 7 6 5 5 5 6 7 7 7 8 8 8 9 9 9 9 9 9 10 9 9 10 9 9 10 10 11 11 12
4 5 2 2 4 2 3 5 3 5 7 3 3 6 8 9 8 9 7 5 5 6 4 4 4 5 6 6 7 7 7 7 7 7 8 7 6 6 6 7 8 8 9 9 9 10 10 11 12
5 4 3 3 4 4 3 5 5 5 6 4 5 6 9 9 9 9 8 7 6 6 5 5 5 5 5 5 6 5 5 5 5 5 5 5 5 4 4 6 7 7 7 8 9 9 9 9 8
4 5 3 1 3 5 4 3 4 8 4 6 10 11 11 9 9 9 8 7 7 6 6 6 5 5 5 4 5 4 4 4 4 5 5 5 4 4 4 4 5 6 7 6 8 9 7 6 6
3 2 3 2 3 4 4 3 3 5 6 10 14 15 12 11 10 10 9 8 6 6 6 6 6 5 5 5 4 4 3 3 2 3 5 5 3 3 3 2 3 4 4 5 5 5 6 6 7
3 2 2 2 2 4 5 4 4 3 6 10 12 13 12 11 9 8 9 8 7 6 5 6 6 6 5 5 4 4 3 3 3 4 4 5 4 3 2 2 3 3 4 4 4 4 5 5 5
4 3 2 2 2 2 4 3 3 4 8 11 12 12 11 10 10 8 7 7 8 7 7 6 6 6 6 4 3 3 4 5 5 4 4 5 5 4 3 3 3 3 4 4 4 4 4 4 4
2 2 1 2 2 3 4 0 4 7 10 11 11 10 10 9 9 10 10 9 9 8 8 7 7 6 6 5 4 4 4 5 4 4 5 6 6 5 4 3 3 3 5 5 5 5 5 4 5
3 3 1 5 3 3 6 5 7 7 11 10 9 9 8 8 9 10 10 9 8 8 7 7 7 7 6 5 5 4 4 4 4 4 5 6 6 6 5 3 2 4 5 5 4 3 4 4 4
1 2 4 4 4 4 6 6 7 7 11 10 10 9 9 8 7 8 10 10 9 9 8 7 7 7 6 6 5 4 4 4 4 4 5 5 6 6 6 4 3 4 4 3 3 3 3 3 3
5 4 4 5 4 4 5 6 6 6 9 10 9 8 9 9 9 8 9 9 9 8 8 8 7 7 6 5 4 4 4 3 3 3 4 5 5 6 6 4 4 5 4 4 4 3 3 2 2
5 4 4 6 6 5 6 7 8 6 7 8 8 9 10 10 8 8 8 9 8 7 8 7 7 6 6 4 4 3 2 1 1 2 4 5 6 7 6 4 4 4 4 3 3 3 4 3 2
2 3 4 5 4 5 5 7 7 6 9 10 12 11 11 9 6 7 8 9 9 9 9 8 8 7 7 5 4 3 3 2 1 1 3 4 5 6 6 5 3 3 3 4 3 3 2 2 2
4 5 5 5 2 0 2 4 5 5 4 6 8 10 11 12 11 10 9 9 9 9 10 10 9 7 7 6 4 4 3 3 2 1 1 1 4 5 5 5 4 4 4 3 3 3 3 2 1
5 6 5 3 2 3 2 3 7 5 4 6 8 9 10 10 10 10 10 10 10 9 9 9 9 8 7 7 6 7 5 3 3 2 1 1 3 4 4 4 4 4 3 3 3 3 2 3 1
6 4 3 2 2 1 1 3 7 3 5 8 8 9 10 11 12 12 12 12 11 9 9 8 9 8 7 8 8 7 5 4 2 2 2 1 1 2 3 4 4 4 3 3 3 3 3 2 2
3 4 5 5 4 2 5 5 6 5 8 7 7 8 9 10 11 11 10 9 8 8 8 8 8 8 8 8 8 8 8 6 5 4 3 2 1 0 1 3 3 3 3 3 3 3 3 2 2
4 6 3 4 3 6 4 4 7 7 7 10 10 8 7 8 9 9 9 9 9 9 9 8 9 8 9 9 9 9 9 8 8 6 5 4 2 2 2 2 3 2 3 3 3 3 3 2 2
4 8 7 4 4 5 3 4 6 4 2 4 6 7 6 7 8 10 11 11 10 10 9 9 10 8 9 9 8 8 8 6 6 6 5 5 4 4 4 3 3 3 3 3 3 3 2 2 2
5 5 8 6 2 2 4 4 5 2 2 4 5 6 6 7 8 9 9 9 9 9 9 9 10 8 8 8 7 7 7 7 6 6 5 4 4 4 4 4 4 3 4 3 4 2 2 2 2
6 7 5 4 3 3 4 4 5 6 5 4 5 6 6 6 7 8 8 8 8 8 7 7 7 8 7 7 8 7 7 7 6 6 6 5 5 4 4 4 4 4 3 3 3 2 2 2 1
2 3 4 4 5 5 4 6 6 9 8 8 7 7 6 6 7 8 7 7 7 7 7 7 7 6 6 6 6 6 7 7 6 6 6 6 5 5 5 5 4 4 3 3 3 3 2 2 1
5 6 7 5 4 5 4 7 6 5 6 7 7 5 5 6 6 7 7 7 6 6 6 6 6 7 6 6 6 6 6 6 6 6 6 5 5 5 5 5 4 4 4 3 4 3 3 3 2
Wind_Direction
264 50 89 60 57 58 69 46 123 80 58 60 72 84 88 75 95 131 177 139 131 124 110 100 95 88 85 85 85 88 89 86 84 82 80 80 79 78 78 76 74 72 72 73 75 74 72 72 71
36 93 70 57 77 79 53 125 103 105 130 115 82 81 80 76 89 115 124 140 133 128 119 107 100 95 91 89 88 89 90 89 87 84 83 83 81 80 79 77 76 74 73 72 72 72 71 71 71
283 125 77 64 84 131 149 182 133 111 122 104 81 61 78 105 118 137 152 145 132 126 124 117 107 100 95 94 92 91 91 90 88 85 84 84 83 81 81 79 77 76 74 74 73 72 71 71 70
57 47 56 71 87 156 159 176 144 113 82 73 95 70 64 99 139 143 143 139 132 131 132 125 114 107 101 98 97 95 93 92 90 87 85 84 84 83 82 81 79 77 76 76 74 73 73 73 70
69 71 66 74 94 151 158 157 137 117 101 91 95 93 70 51 119 132 138 139 138 140 139 130 121 115 108 104 102 100 97 95 93 92 90 87 85 83 82 81 80 79 77 77 74 72 71 71 69
57 67 82 109 120 110 131 135 116 106 110 112 104 109 126 130 127 141 141 141 143 145 142 135 132 125 118 112 107 104 101 99 96 94 93 92 90 86 82 81 83 83 82 79 75 71 70 69 67
104 94 120 142 123 112 135 127 124 122 123 139 128 112 146 173 152 146 142 139 137 139 137 136 139 135 128 122 116 111 105 102 101 100 97 94 93 90 87 84 85 86 84 80 75 70 69 70 68
125 100 84 122 132 140 141 122 127 124 126 133 126 137 168 196 163 135 133 132 135 139 143 147 146 143 136 129 123 119 111 107 104 102 100 95 90 88 88 86 85 83 82 77 72 69 69 69 68
89 80 110 174 154 155 125 104 103 101 105 103 120 153 167 163 140 127 124 125 140 146 153 154 155 156 150 141 129 122 114 105 101 100 100 91 79 79 83 88 86 82 78 75 73 66 65 66 65
88 117 198 196 165 149 131 123 127 96 95 86 82 102 136 146 140 145 148 149 154 157 161 167 164 160 153 146 131 125 115 101 93 94 97 99 93 82 78 83 84 77 68 64 63 62 63 59 57
129 160 188 162 155 135 120 115 112 121 136 161 150 150 153 153 154 156 159 157 160 162 161 166 170 166 153 137 133 122 109 104 94 92 104 103 95 79 62 51 55 57 58 54 55 57 57 60 65
126 189 166 165 144 135 140 130 109 146 185 170 160 157 159 163 170 167 166 166 162 150 151 157 160 153 149 138 132 126 117 108 109 108 110 103 88 77 73 58 56 57 63 60 55 61 62 65 72
133 193 182 161 145 150 137 138 140 164 157 148 151 153 164 171 173 172 166 162 157 152 151 148 148 144 145 134 133 127 123 125 125 111 106 108 102 95 88 70 64 61 66 68 67 69 70 69 70
184 174 179 170 156 155 136 149 132 183 154 151 156 166 175 175 170 163 159 164 163 164 161 150 142 147 142 136 134 134 126 123 113 104 112 116 111 105 93 76 64 55 63 70 80 81 72 69 76
136 114 341 249 187 178 123 133 207 190 158 160 170 174 176 181 170 170 173 171 169 165 158 152 149 139 136 138 136 124 121 117 111 113 116 117 116 114 107 93 69 61 67 70 73 68 68 70 71
81 94 232 265 197 183 138 225 235 185 162 172 181 181 178 185 179 177 173 167 162 156 154 154 147 136 135 135 128 118 112 110 110 109 108 114 123 123 113 100 81 76 78 78 69 64 63 59 59
45 192 220 267 220 177 162 218 235 192 171 181 189 190 181 181 180 180 173 166 162 160 155 149 142 140 141 134 123 116 108 104 105 104 103 114 123 122 115 106 100 91 80 76 83 67 76 69 58
214 205 215 230 236 179 186 223 230 209 182 187 190 188 182 183 189 181 169 161 158 157 154 151 145 143 138 129 112 97 93 94 92 99 104 112 117 117 112 107 103 97 84 66 70 74 61 68 63
188 188 225 244 233 191 211 225 228 215 189 190 193 193 192 196 193 173 163 157 150 149 151 155 152 150 143 138 133 127 130 120 88 92 108 113 120 119 114 113 108 100 98 95 92 87 68 50 58
214 221 249 264 231 196 218 240 238 214 202 195 192 196 194 193 182 175 167 162 161 166 166 164 162 159 157 159 157 150 147 140 138 83 89 105 115 123 124 126 124 116 108 94 88 87 77 49 53
236 215 222 227 261 270 158 292 259 249 216 199 199 196 192 191 187 183 176 175 169 171 176 173 170 164 163 157 134 113 83 65 58 68 84 103 125 125 124 126 130 128 124 126 121 114 109 99 12
233 226 203 199 140 259 169 250 267 240 237 217 211 202 198 194 189 184 181 179 178 181 178 172 168 165 161 159 156 153 154 162 188 184 166 142 128 126 129 132 135 138 137 137 139 123 120 125 111
212 220 205 201 168 281 255 196 276 250 232 234 223 207 201 196 189 187 187 186 184 180 174 175 171 168 167 170 169 164 160 167 166 153 141 140 136 122 128 132 135 145 147 149 138 121 117 128 140
182 55 34 50 77 284 240 187 265 231 215 216 218 205 198 195 190 188 187 180 179 177 172 170 171 176 176 173 170 170 168 164 157 165 169 176 171 185 155 142 141 150 150 151 147 139 133 132 129
95 87 31 354 1 253 254 187 244 249 222 203 199 197 193 188 182 180 177 177 180 181 179 173 171 179 181 177 179 180 177 172 173 176 181 180 184 200 209 168 154 152 157 152 144 136 142 142 138
177 145 159 199 227 274 311 228 258 267 229 177 172 167 165 171 176 180 181 182 183 184 181 175 175 177 182 184 187 184 178 176 180 181 179 184 192 200 194 174 161 158 154 152 146 139 158 152 156
157 179 174 154 212 261 281 287 315 5 82 129 148 153 168 176 176 178 178 176 177 179 182 182 180 178 182 184 181 182 181 180 180 181 180 184 194 194 183 175 169 160 153 148 141 138 155 151 165
168 161 108 133 182 243 275 251 231 227 211 188 178 179 190 184 178 175 176 178 178 178 177 173 174 180 180 178 179 181 183 182 176 170 178 188 194 190 177 175 172 169 164 157 146 143 152 145 167
171 154 141 150 168 170 238 263 228 205 201 193 199 195 189 185 181 180 181 180 173 168 167 168 172 169 171 176 177 176 182 181 175 178 186 189 187 182 182 180 176 175 176 165 153 163 158 154 159
183 185 158 170 229 188 194 262 276 206 201 191 190 188 184 179 180 178 176 169 166 167 169 173 175 176 179 177 173 177 179 176 178 186 192 189 186 186 182 174 173 177 173 165 161 166 158 160 171
Height
1507 1507 1506 1507 1510 1521 1526 1520 1515 1514 1514 1515 1514 1515 1518 1523 1526 1533 1530 1528 1529 1528 1527 1526 1525 1524 1523 1522 1521 1521 1520 1520 1520 1520 1519 1519 1519 1518 1517 1517 1516 1515 1513 1513 1514 1514 1514 1514 1514
1507 1507 1508 1508 1518 1532 1529 1519 1516 1514 1515 1515 1516 1518 1520 1524 1525 1528 1528 1529 1529 1529 1528 1527 1526 1525 1525 1524 1523 1523 1522 1522 1522 1521 1521 1521 1520 1520 1519 1518 1518 1517 1517 1516 1516 1516 1516 1515 1515
1508 1507 1509 1511 1521 1529 1527 1519 1515 1513 1514 1515 1518 1520 1522 1526 1527 1528 1529 1530 1530 1529 1529 1528 1527 1527 1526 1525 1525 1524 1524 1524 1524 1523 1523 1522 1522 1521 1521 1520 1520 1519 1519 1518 1518 1518 1517 1517 1517
1508 1509 1510 1517 1523 1519 1517 1515 1514 1514 1516 1516 1518 1523 1525 1527 1527 1528 1529 1530 1530 1530 1530 1529 1529 1528 1527 1527 1526 1526 1526 1525 1525 1525 1524 1524 1523 1523 1522 1522 1521 1521 1521 1520 1520 1520 1519 1519 1518
1508 1509 1516 1523 1521 1516 1513 1512 1513 1514 1516 1518 1519 1524 1527 1528 1528 1529 1530 1531 1531 1530 1530 1530 1530 1529 1529 1528 1528 1528 1527 1527 1527 1526 1526 1525 1525 1525 1524 1524 1523 1523 1522 1522 1522 1522 1521 1521 1520
1509 1511 1524 1529 1522 1515 1513 1513 1514 1516 1518 1520 1521 1525 1528 1529 1529 1530 1531 1532 1532 1531 1531 1531 1531 1531 1530 1530 1530 1529 1529 1529 1528 1528 1528 1527 1527 1526 1526 1525 1525 1525 1524 1524 1524 1523 1523 1523 1522
1510 1515 1523 1523 1522 1518 1514 1513 1514 1516 1518 1520 1521 1525 1528 1530 1530 1531 1532 1532 1533 1532 1532 1532 1532 1532 1532 1531 1531 1531 1531 1531 1530 1530 1530 1529 1528 1528 1528 1527 1527 1526 1526 1526 1525 1525 1525 1525 1524
1509 1514 1521 1522 1522 1519 1514 1513 1515 1516 1518 1520 1521 1523 1527 1529 1530 1531 1532 1533 1533 1534 1534 1533 1533 1533 1533 1533 1533 1532 1532 1532 1532 1532 1531 1531 1530 1530 1529 1529 1529 1528 1528 1528 1527 1527 1526 1526 1526
1510 1519 1525 1521 1520 1517 1513 1514 1516 1517 1518 1520 1521 1522 1524 1528 1530 1531 1532 1533 1534 1534 1534 1534 1534 1534 1534 1534 1534 1534 1533 1533 1533 1533 1532 1532 1532 1531 1531 1531 1530 1530 1530 1529 1529 1529 1528 1528 1527
1510 1522 1519 1514 1513 1513 1513 1514 1516 1518 1519 1521 1522 1523 1525 1527 1529 1530 1531 1532 1533 1534 1534 1535 1535 1535 1535 1535 1535 1535 1534 1534 1534 1534 1534 1533 1533 1533 1532 1532 1532 1532 1531 1531 1530 1530 1530 1529 1529
1510 1516 1513 1511 1511 1512 1513 1514 1515 1517 1520 1520 1521 1523 1525 1527 1529 1530 1531 1532 1533 1534 1534 1535 1535 1536 1536 1536 1536 1536 1535 1535 1535 1535 1535 1534 1534 1534 1534 1533 1533 1533 1532 1532 1532 1531 1531 1531 1530
1511 1511 1510 1511 1511 1512 1513 1514 1516 1516 1518 1519 1520 1521 1524 1526 1528 1529 1530 1532 1533 1534 1534 1535 1536 1536 1536 1537 1537 1536 1536 1536 1536 1536 1536 1535 1535 1535 1535 1534 1534 1534 1534 1533 1533 1533 1532 1532 1531
1511 1511 1510 1511 1511 1512 1513 1514 1515 1516 1517 1519 1520 1522 1523 1525 1527 1529 1530 1531 1532 1533 1534 1535 1536 1536 1537 1537 1537 1537 1537 1537 1537 1536 1536 1536 1536 1536 1536 1535 1535 1535 1534 1534 1534 1533 1533 1532 1532
1510 1510 1510 1511 1511 1512 1513 1514 1515 1516 1517 1518 1520 1521 1523 1524 1526 1528 1529 1530 1532 1533 1534 1534 1535 1536 1536 1537 1537 1537 1537 1537 1537 1537 1537 1537 1537 1536 1536 1536 1536 1535 1535 1535 1534 1534 1533 1533 1533
1509 1511 1512 1511 1510 1511 1513 1517 1514 1514 1516 1517 1519 1520 1522 1523 1525 1526 1527 1529 1530 1531 1533 1534 1535 1535 1536 1536 1537 1537 1537 1537 1537 1537 1537 1537 1537 1537 1537 1536 1536 1536 1536 1535 1535 1535 1534 1533 1533
1510 1516 1521 1513 1510 1511 1516 1523 1513 1513 1514 1516 1517 1519 1520 1522 1523 1524 1526 1528 1529 1530 1532 1533 1534 1535 1535 1536 1537 1537 1537 1537 1537 1537 1537 1537 1537 1537 1537 1537 1536 1536 1536 1536 1535 1535 1534 1534 1534
1518 1524 1522 1516 1509 1510 1514 1518 1510 1511 1512 1514 1515 1517 1518 1520 1522 1523 1524 1526 1528 1529 1530 1531 1533 1534 1535 1535 1536 1537 1537 1537 1537 1537 1537 1537 1537 1537 1537 1537 1537 1536 1536 1536 1535 1535 1534 1534 1534
1523 1522 1520 1518 1510 1510 1513 1514 1509 1509 1511 1512 1513 1515 1516 1517 1519 1521 1523 1524 1526 1528 1529 1530 1531 1532 1533 1534 1535 1536 1536 1537 1537 1537 1537 1537 1537 1537 1537 1537 1536 1536 1536 1536 1535 1535 1535 1534 1534
1512 1516 1518 1513 1506 1510 1512 1512 1509 1507 1509 1510 1511 1512 1513 1515 1517 1519 1521 1522 1524 1526 1527 1529 1530 1531 1532 1533 1534 1534 1535 1536 1536 1536 1537 1537 1537 1537 1537 1536 1536 1536 1536 1535 1535 1535 1534 1534 1534
1510 1515 1516 1510 1504 1508 1512 1511 1506 1505 1505 1505 1507 1508 1510 1512 1515 1517 1518 1520 1522 1524 1525 1527 1528 1529 1530 1532 1533 1533 1534 1535 1535 1535 1536 1536 1536 1536 1536 1536 1536 1535 1535 1535 1535 1534 1534 1534 1534
1510 1513 1512 1511 1506 1506 1511 1515 1509 1504 1502 1503 1504 1504 1506 1508 1511 1513 1515 1517 1519 1521 1523 1524 1526 1528 1529 1530 1531 1532 1533 1533 1534 1534 1534 1535 1535 1535 1535 1535 1535 1535 1535 1534 1534 1534 1533 1533 1534
1511 1503 1503 1506 1514 1521 1515 1530 1513 1505 1503 1501 1501 1501 1502 1505 1507 1509 1512 1514 1516 1518 1520 1522 1524 1526 1527 1529 1530 1530 1530 1531 1532 1533 1533 1534 1534 1534 1534 1534 1534 1534 1534 1533 1533 1533 1533 1533 1533
1502 1497 1500 1504 1512 1520 1518 1526 1517 1506 1505 1500 1497 1497 1499 1501 1503 1505 1508 1510 1513 1515 1517 1520 1522 1523 1525 1527 1528 1528 1529 1529 1530 1531 1532 1532 1532 1533 1533 1533 1533 1533 1533 1532 1532 1532 1532 1532 1532
1494 1499 1505 1512 1519 1530 1519 1524 1520 1507 1499 1495 1494 1494 1495 1497 1500 1502 1505 1508 1510 1513 1515 1517 1519 1521 1523 1524 1525 1526 1527 1527 1528 1529 1530 1530 1531 1531 1531 1531 1531 1531 1531 1531 1531 1531 1531 1531 1531
1498 1515 1531 1532 1538 1533 1514 1517 1513 1495 1490 1489 1489 1490 1492 1495 1497 1499 1502 1505 1507 1509 1512 1514 1516 1518 1520 1521 1523 1524 1525 1525 1526 1527 1527 1528 1528 1529 1529 1530 1530 1530 1530 1530 1530 1530 1530 1529 1529
1501 1511 1531 1539 1540 1531 1515 1516 1504 1490 1487 1486 1487 1489 1491 1493 1495 1497 1499 1502 1504 1506 1509 1511 1513 1515 1517 1519 1520 1521 1522 1523 1524 1525 1525 1526 1526 1527 1527 1528 1528 1528 1528 1528 1528 1528 1528 1528 1528
1501 1508 1508 1522 1524 1529 1522 1511 1498 1489 1488 1488 1488 1489 1490 1492 1493 1495 1497 1500 1502 1504 1506 1508 1510 1511 1513 1515 1517 1518 1520 1521 1522 1522 1523 1524 1524 1525 1525 1526 1526 1526 1526 1526 1527 1526 1526 1526 1526
1491 1499 1513 1521 1531 1536 1524 1516 1510 1496 1492 1490 1489 1489 1490 1491 1492 1494 1495 1497 1499 1501 1504 1506 1507 1509 1511 1512 1514 1515 1516 1518 1519 1520 1520 1521 1522 1522 1523 1523 1524 1524 1524 1524 1525 1525 1525 1525 1524
1495 1499 1506 1517 1521 1531 1532 1519 1491 1489 1487 1488 1487 1487 1488 1490 1491 1492 1494 1495 1497 1499 1501 1503 1505 1506 1508 1509 1511 1512 1513 1514 1516 1517 1518 1518 1519 1520 1520 1521 1521 1522 1522 1522 1522 1522 1522 1522 1522
1489 1494 1503 1516 1518 1520 1524 1515 1484 1484 1484 1484 1485 1486 1487 1488 1489 1491 1492 1493 1495 1497 1499 1500 1502 1504 1505 1506 1508 1509 1510 1511 1512 1513 1514 1516 1516 1517 1518 1518 1519 1519 1519 1520 1520 1520 1520 1520 1520